Wind_Speed
57 57 57 56 56 56 56 55 55 55 54 54 53 52 52 51 50 50 49 48 48 47 47 46 45 44 43 43 42 41 41 39 38 38 38 36 35 34 33 31 30 29 27 25 23 22 20 19 18 17 16 18 19 19 19 18 16 15 15 16 15 14 14 15 14 12 11 11 12 11 9 10 13 13 12 12 12 11 11 12 10 6 4 1 1 4 7 5
57 57 57 56 56 56 55 55 55 55 54 54 53 52 52 51 50 49 49 48 47 47 46 45 44 43 42 42 41 40 39 38 37 37 37 36 34 32 31 30 29 28 26 24 23 21 20 19 18 19 19 19 21 21 21 19 16 14 16 17 17 15 15 15 12 9 8 9 9 9 10 11 13 12 11 13 13 12 13 13 10 5 3 3 2 6 8 7
56 56 56 55 55 55 55 54 54 54 53 53 52 52 51 50 49 49 48 47 46 45 44 44 43 43 42 41 41 40 39 37 37 37 36 35 33 32 31 29 28 27 25 23 22 21 19 19 19 20 21 20 22 23 24 22 18 16 18 18 18 16 14 15 14 9 9 11 10 10 11 13 14 13 12 14 14 13 14 13 10 5 5 6 3 6 8 7
54 54 54 54 54 54 53 53 53 53 52 52 51 51 50 49 48 48 47 46 45 44 43 43 43 43 42 42 41 41 39 38 37 37 36 35 33 32 31 29 28 26 24 22 21 20 19 20 21 22 21 21 23 25 26 24 21 19 20 20 19 18 16 16 16 12 12 15 15 13 13 13 13 14 15 15 14 13 13 11 9 6 7 10 7 8 8 7
53 53 53 53 53 52 52 52 52 51 51 51 50 50 49 48 47 47 46 46 45 44 43 43 43 43 43 43 42 42 40 38 37 37 37 36 34 32 31 29 27 26 24 22 21 20 20 21 22 22 22 22 24 27 28 26 24 21 21 21 20 20 19 19 19 17 15 15 15 12 12 13 11 12 15 14 13 12 11 10 10 8 8 12 12 10 8 7
52 52 52 52 52 51 51 51 51 50 50 50 49 49 48 47 46 46 46 46 45 44 43 44 44 44 44 43 43 42 41 38 37 37 37 36 34 32 31 29 27 26 24 22 21 21 20 22 23 23 23 24 25 27 28 28 27 22 21 21 20 21 22 23 23 22 19 16 16 12 9 11 13 12 13 15 14 11 10 10 10 9 9 11 13 11 9 9
52 52 52 51 51 51 51 50 50 49 49 49 49 48 47 46 46 46 46 46 45 44 43 43 43 43 43 43 42 41 40 38 37 37 37 35 34 32 31 29 27 26 24 22 21 21 21 23 23 23 24 26 27 28 29 30 29 24 22 22 21 22 23 24 24 23 22 18 19 17 12 12 16 15 15 15 13 10 10 10 9 8 9 10 12 12 11 11
53 52 52 52 51 51 51 50 50 49 49 49 49 48 46 45 45 45 45 45 44 43 42 42 42 42 42 42 41 40 40 38 36 36 36 34 33 31 30 29 27 27 24 22 21 21 23 23 24 24 26 27 28 29 30 30 29 26 24 24 23 22 23 25 24 21 21 20 20 19 17 16 17 17 15 13 12 12 11 10 9 10 10 10 12 11 10 10
52 52 52 51 51 51 50 50 50 49 49 48 48 47 46 45 44 44 43 43 43 42 40 40 41 41 41 41 40 40 40 37 35 35 36 33 32 31 30 29 28 27 25 22 22 23 24 24 25 26 27 28 29 30 31 30 28 26 25 24 24 24 24 25 24 22 21 20 19 19 18 18 17 16 14 9 11 13 12 11 10 10 10 11 12 10 8 10
52 52 51 51 50 50 50 49 49 48 48 47 47 46 45 44 43 42 42 42 41 41 40 39 41 41 41 41 40 40 39 37 35 36 36 34 32 31 31 31 29 28 25 23 23 24 24 25 26 27 28 29 31 32 32 30 29 28 26 24 24 24 25 25 24 23 22 21 20 19 17 17 16 16 13 8 11 16 13 12 10 10 10 10 11 8 7 11
52 51 51 50 50 49 49 49 48 48 47 47 46 46 45 44 43 42 41 41 41 41 40 40 41 42 42 42 41 40 40 38 37 37 37 36 34 32 32 32 30 28 26 24 24 25 25 26 27 28 29 31 32 33 32 30 29 29 27 25 25 25 24 24 25 24 23 22 21 19 16 16 16 15 12 13 18 19 15 13 11 10 10 9 10 9 9 11
50 50 50 50 49 49 49 48 48 48 47 47 46 45 45 44 43 42 42 42 42 42 41 41 42 42 42 42 40 40 41 38 37 38 38 37 35 33 33 33 30 28 27 26 26 26 26 27 28 29 31 32 34 34 33 30 30 30 27 25 25 25 25 25 26 25 24 23 21 19 17 17 15 14 15 17 21 19 15 15 12 11 11 9 11 10 11 12
48 49 49 49 49 48 48 48 48 47 47 46 46 45 45 44 44 43 43 43 43 43 42 41 42 41 42 41 39 41 42 38 36 38 38 37 36 34 33 33 30 28 28 28 28 28 27 29 30 30 32 34 36 36 34 31 31 30 28 27 27 26 26 26 25 25 26 24 21 19 19 19 15 14 17 17 19 18 14 14 11 11 12 11 13 11 13 14
46 47 47 47 47 47 47 47 47 47 46 46 46 45 45 45 45 45 44 44 43 43 42 41 40 41 42 40 39 41 40 37 35 38 38 37 37 35 34 33 30 29 29 30 30 30 30 31 31 32 33 35 37 37 35 32 32 30 28 29 28 27 26 25 23 24 26 24 20 19 20 20 15 14 16 17 19 18 14 15 13 12 12 12 14 12 14 15
44 44 45 45 45 45 45 46 46 46 46 46 45 45 46 46 45 45 45 44 43 42 41 40 39 40 40 37 38 39 38 35 34 37 38 37 36 35 34 33 31 31 31 32 32 32 33 33 33 34 35 36 38 39 36 33 32 30 28 30 29 28 26 24 23 24 26 24 21 20 20 19 16 15 16 17 20 19 15 14 13 14 13 12 14 14 14 15
42 42 43 43 44 44 44 45 45 45 45 45 46 46 46 46 45 45 44 42 41 39 38 38 37 38 37 35 36 36 34 32 32 36 37 36 36 36 35 33 32 32 33 33 34 34 34 34 34 35 37 37 38 40 38 35 32 30 30 31 30 28 26 24 24 25 26 25 22 21 20 19 18 18 18 17 20 20 16 13 13 16 14 12 14 13 13 16
40 41 42 42 43 43 44 44 44 45 45 45 45 45 45 44 43 42 41 39 38 36 36 35 35 35 33 31 32 32 29 29 31 35 36 36 37 37 36 33 32 33 33 34 36 36 35 35 36 36 37 38 39 41 40 38 34 30 31 32 30 28 26 25 26 27 27 25 23 21 21 22 21 20 20 20 19 17 15 15 15 15 12 11 13 13 14 18
40 41 41 42 43 43 44 44 44 44 44 44 43 43 41 40 39 38 37 35 34 33 33 32 32 31 29 28 29 28 28 29 32 35 36 37 38 37 36 34 33 34 35 36 37 37 36 37 37 37 38 38 40 42 42 41 36 31 31 32 31 29 26 26 26 28 28 27 23 21 22 24 22 20 20 19 16 13 11 13 14 14 12 10 11 12 14 18
40 41 41 41 42 42 42 42 42 41 40 40 39 38 37 36 35 34 33 32 31 30 29 30 30 28 26 25 26 27 27 29 33 36 37 38 38 38 37 35 35 36 37 38 38 37 37 38 38 37 39 39 40 42 43 43 38 33 31 31 31 30 28 28 28 28 28 29 26 22 22 25 23 20 19 18 13 11 11 13 15 16 15 11 10 13 16 19
37 38 38 38 38 39 38 38 37 37 36 35 34 34 33 32 31 31 30 29 28 28 29 29 28 26 25 24 25 27 28 31 35 36 38 40 40 39 38 36 37 37 39 39 38 38 38 40 39 38 40 40 40 41 44 45 41 36 32 30 31 32 30 30 30 28 27 30 29 25 24 25 24 21 20 20 15 17 18 16 17 18 15 12 13 17 19 20
33 34 34 34 34 34 34 33 33 32 32 31 31 31 30 29 29 29 28 28 28 29 29 29 27 25 24 25 26 29 31 33 36 37 39 41 41 39 38 37 38 39 40 40 39 40 40 41 40 39 40 41 42 42 44 46 43 39 34 30 31 33 32 31 31 29 28 28 28 28 28 27 24 22 24 22 15 19 20 18 19 17 14 13 17 19 20 19
29 30 30 30 30 30 30 30 30 29 29 29 29 28 28 28 28 28 28 28 28 29 30 28 26 24 25 27 29 31 33 35 37 38 39 41 42 40 38 37 38 39 40 40 41 42 41 40 41 40 41 42 43 43 44 46 46 42 36 31 31 33 33 32 32 31 29 27 27 29 30 29 25 24 29 25 17 21 23 21 22 19 16 14 17 17 16 16
27 27 28 28 28 28 28 28 29 29 29 28 28 28 28 28 28 28 28 28 29 30 29 27 25 26 28 30 31 33 34 36 38 38 39 41 42 40 38 38 38 39 40 42 43 42 40 41 42 42 42 42 43 44 45 46 47 45 39 33 31 31 33 33 32 33 31 28 28 30 31 31 28 27 31 29 23 25 25 25 25 23 20 18 18 16 14 16
26 26 27 27 28 28 28 28 28 29 28 28 28 28 28 28 28 28 29 30 30 30 29 27 27 28 30 31 32 33 34 35 36 36 38 40 41 40 39 38 38 38 40 42 43 42 41 42 42 42 42 43 45 46 45 45 48 47 41 35 32 31 32 33 33 34 33 30 29 32 33 31 30 30 31 30 28 27 27 28 27 25 22 20 19 16 13 18
25 25 26 26 27 27 27 28 28 28 28 28 28 28 28 28 29 30 30 31 31 30 29 28 28 29 30 31 32 31 32 33 33 34 37 39 40 40 38 36 37 38 39 41 42 41 41 42 42 42 42 45 46 47 46 46 48 49 44 38 34 32 31 32 33 34 34 32 32 34 34 31 30 30 30 29 29 29 28 27 25 24 22 19 18 17 18 21
24 24 25 26 26 26 27 27 27 27 28 28 28 28 28 29 29 30 31 32 31 30 29 28 29 29 30 31 30 28 29 30 31 34 36 37 39 39 36 35 37 38 38 39 40 40 41 42 42 42 44 46 47 48 47 47 49 50 46 40 37 34 32 33 34 33 34 34 34 37 36 33 29 27 28 29 27 26 25 24 23 23 21 19 19 21 22 21
26 27 27 27 28 28 28 28 28 28 28 28 28 28 29 29 30 31 33 32 31 30 29 29 29 29 30 30 28 26 26 27 29 34 36 37 39 39 37 37 37 37 37 38 40 41 42 42 42 43 45 46 47 48 48 48 48 50 47 43 41 38 35 34 35 34 34 34 36 39 39 36 31 26 27 30 27 25 24 24 24 23 21 21 22 22 20 18
29 29 30 31 31 32 31 31 31 31 30 30 30 30 30 31 32 33 33 32 31 31 31 30 30 31 30 28 25 24 25 26 29 34 35 36 39 40 39 38 37 36 36 37 39 40 40 42 43 44 44 45 47 49 50 49 49 50 48 44 43 41 38 36 36 35 35 34 37 42 41 39 36 29 28 32 31 28 27 26 26 26 25 25 24 21 19 19
26 27 28 30 31 32 33 34 34 34 34 33 32 32 32 32 33 34 33 32 32 32 32 31 32 32 29 26 24 24 25 26 29 33 33 34 38 39 39 37 34 33 33 35 37 38 40 41 41 41 41 44 48 51 51 50 49 49 47 44 43 42 40 38 37 36 36 35 38 43 44 43 41 35 31 33 35 34 32 31 29 29 29 28 24 21 22 23
20 21 22 24 26 28 29 31 33 34 35 35 35 34 34 34 34 35 34 33 33 34 33 32 33 31 28 25 24 23 23 24 28 31 30 33 38 38 37 35 32 30 31 33 35 37 39 40 41 42 44 48 51 51 50 49 48 48 47 45 44 43 41 40 39 38 37 36 38 43 46 47 45 41 36 35 37 38 37 34 31 31 31 30 27 25 26 26
15 16 17 19 20 22 24 26 28 30 32 33 35 35 36 36 36 37 36 35 35 35 34 33 33 31 27 25 23 22 22 22 27 29 29 32 38 39 38 36 34 32 33 34 36 37 39 41 44 46 48 51 50 49 49 48 47 47 46 46 46 44 42 42 40 40 39 38 39 42 46 49 49 46 42 39 39 40 40 37 34 32 31 31 29 27 26 26
12 13 14 16 17 19 20 22 24 25 27 29 30 32 34 35 37 38 37 36 37 36 35 34 33 31 27 25 24 22 21 22 27 30 30 34 38 39 38 37 36 34 34 36 37 38 40 42 44 45 47 48 47 47 47 47 46 47 46 47 48 47 44 42 41 41 40 40 41 42 44 49 51 50 47 44 41 40 40 40 38 35 32 30 27 25 25 25
12 12 13 14 15 17 18 20 21 22 23 25 27 28 30 32 34 36 37 37 37 37 36 34 33 30 27 26 25 22 21 23 28 30 31 33 37 38 37 36 35 34 35 36 36 37 39 41 42 43 46 46 46 46 46 46 46 47 47 48 51 50 46 42 41 41 42 42 42 43 43 45 49 50 49 47 45 43 41 39 39 36 34 32 30 28 28 27
15 14 14 14 14 15 16 18 19 21 22 23 25 26 27 29 30 33 35 36 37 37 36 34 32 31 28 26 25 23 22 25 28 30 31 31 33 36 36 36 36 36 36 36 36 37 38 40 42 44 46 46 46 46 46 46 47 48 48 49 51 52 48 43 40 40 42 43 42 43 43 43 45 47 48 47 45 45 43 41 39 36 32 30 28 27 26 25
17 17 17 16 15 15 15 16 18 19 21 22 23 24 25 27 28 31 34 35 36 35 34 33 33 31 29 27 26 23 23 25 28 30 31 30 31 35 36 36 37 38 38 38 39 40 41 42 43 44 45 46 46 46 46 47 48 48 49 49 51 53 51 46 42 41 42 44 43 41 41 42 43 45 47 46 43 42 42 42 41 37 33 30 28 27 24 23
19 19 19 19 18 17 16 16 16 17 18 20 21 22 23 25 27 29 31 32 32 31 31 32 32 32 30 28 27 25 24 25 28 31 31 29 30 34 36 37 38 39 39 40 40 41 42 43 43 42 43 44 45 45 45 46 47 47 48 50 51 53 54 50 46 44 43 43 43 41 42 43 43 43 45 46 44 40 39 39 38 36 35 33 31 29 28 28
20 21 21 21 21 20 19 17 16 15 16 17 18 19 22 24 26 27 28 29 29 29 30 31 31 31 31 30 28 26 25 26 29 32 30 28 30 33 36 37 38 39 40 40 40 41 42 42 42 43 44 46 45 44 45 46 47 46 48 51 52 52 54 53 51 48 44 43 43 44 45 45 43 42 42 44 45 43 40 39 37 36 35 33 31 30 30 31
21 22 23 23 23 23 21 20 18 16 15 15 15 17 20 24 26 27 28 28 27 27 28 30 31 32 32 32 30 28 27 28 30 31 30 29 29 32 35 36 38 39 40 40 40 41 42 42 42 43 45 45 44 43 45 46 48 48 48 51 53 52 51 53 54 52 47 44 44 45 46 45 44 43 41 39 41 42 40 38 36 36 34 33 32 30 31 32
22 23 24 25 25 25 24 22 20 18 16 15 14 13 15 20 24 26 28 28 27 27 29 31 33 34 35 35 33 31 29 30 31 31 29 29 29 30 33 35 36 37 39 40 40 40 42 42 42 42 43 43 42 42 44 46 48 49 48 50 53 53 51 51 53 53 50 47 46 46 46 45 44 45 43 40 38 38 38 35 33 32 30 29 30 30 30 31
22 23 24 26 26 26 25 24 22 20 18 16 14 12 12 15 20 25 27 28 27 28 30 32 33 34 33 34 34 32 32 32 32 30 29 30 30 32 33 34 34 35 37 39 39 40 42 42 41 41 41 42 42 42 44 45 47 48 48 50 52 54 53 51 51 52 52 50 48 47 46 46 45 45 45 43 40 37 37 36 34 32 29 28 28 28 29 29
23 23 24 25 27 27 26 25 23 21 19 17 15 13 11 11 15 21 26 28 28 29 30 31 31 31 31 32 32 31 31 33 32 30 30 30 32 33 33 32 32 34 36 37 38 40 43 43 42 40 41 41 40 40 42 44 45 47 48 49 51 55 55 52 51 52 52 52 51 49 47 46 46 45 45 44 43 40 38 37 36 35 33 30 29 29 29 29
24 24 24 25 26 27 27 26 25 23 21 19 17 15 13 10 11 17 23 27 28 29 30 30 30 30 31 33 33 32 31 33 33 30 31 32 32 32 31 30 31 32 34 36 38 41 43 43 41 40 40 39 38 39 41 43 44 45 47 48 50 54 56 55 52 51 51 51 52 52 50 46 45 45 45 44 43 43 41 39 37 36 34 32 30 30 31 31
26 25 24 25 26 27 27 27 25 24 22 21 18 16 14 11 9 12 18 23 27 28 29 29 29 29 31 33 34 34 33 35 35 33 33 33 33 33 32 31 32 33 34 36 38 41 42 41 42 42 41 41 40 41 43 45 44 44 45 46 47 51 55 56 54 52 51 51 51 52 52 50 47 45 44 43 42 42 43 42 40 36 35 34 33 32 33 34
27 26 25 25 26 26 27 27 26 25 23 22 20 17 16 13 10 9 12 18 23 27 29 30 30 31 32 33 34 34 35 36 36 35 34 33 32 32 31 31 32 33 35 36 37 39 40 41 43 44 44 44 43 44 48 49 47 45 45 44 45 48 52 56 57 55 53 52 51 51 52 53 52 48 44 40 39 39 40 41 40 38 36 35 35 35 36 37
28 27 26 25 25 26 27 27 26 25 24 23 21 19 16 15 13 10 9 13 18 24 28 29 32 33 34 34 35 36 37 38 38 36 34 32 30 30 29 30 31 32 34 34 35 37 39 40 42 44 45 46 47 48 49 50 47 46 45 45 45 47 50 55 58 57 55 53 51 50 51 53 54 52 48 42 39 38 37 37 38 38 37 36 35 36 37 37
29 28 27 26 25 25 26 27 26 25 24 23 22 20 17 15 14 12 10 10 14 20 25 28 31 33 33 35 37 37 37 38 37 35 33 31 30 29 29 30 31 31 32 32 33 35 36 38 40 42 43 46 48 48 48 50 48 45 45 46 45 46 49 54 58 58 57 54 51 50 50 51 53 54 52 48 42 39 37 36 37 38 37 35 34 34 35 35
30 29 29 28 26 25 26 26 26 25 24 24 23 22 19 16 15 14 12 10 11 16 21 26 31 33 35 37 37 36 35 36 35 33 32 32 32 31 31 32 33 32 31 31 31 32 33 35 38 40 43 47 49 48 48 50 49 46 46 47 46 46 48 52 56 58 58 55 53 50 48 49 51 53 54 52 48 43 39 37 37 40 40 38 36 35 34 34
31 31 31 29 26 25 26 26 26 25 25 24 24 23 21 18 16 15 14 12 11 12 16 22 28 31 33 33 34 34 34 35 34 34 34 34 33 32 32 34 34 32 30 30 29 29 30 32 34 38 43 47 49 49 50 51 50 48 48 49 49 49 49 50 52 56 58 57 54 52 50 48 49 51 53 54 52 49 45 40 36 39 43 43 42 40 38 36
32 32 32 30 27 26 26 26 25 25 25 24 24 23 21 19 18 16 15 14 13 13 14 17 21 24 27 30 33 34 35 36 36 36 36 36 34 33 34 36 36 34 33 32 30 29 29 31 33 37 41 44 45 46 47 48 49 48 48 49 50 50 50 51 51 54 57 59 56 53 51 49 48 50 51 53 53 51 50 45 38 37 41 45 47 46 43 40
33 33 33 32 29 27 26 25 25 25 25 25 24 23 21 20 19 17 16 15 15 14 14 13 15 19 24 29 34 36 37 38 38 38 38 38 36 35 36 39 41 39 37 35 33 33 34 34 35 37 38 39 40 41 41 42 44 45 47 49 49 49 50 51 53 54 56 59 58 55 52 49 47 48 50 51 53 52 51 48 43 39 39 42 46 47 45 42
33 34 33 33 31 28 26 25 25 25 25 25 25 23 21 20 20 18 16 15 15 15 15 14 13 17 23 29 33 36 37 38 39 40 40 41 39 37 37 40 42 41 38 36 36 38 39 38 37 38 38 37 37 38 39 40 41 42 45 47 47 48 49 50 51 53 55 58 59 56 53 48 45 47 49 50 51 52 52 50 48 44 41 39 40 42 44 43
34 35 35 34 32 30 27 25 24 24 26 26 25 22 20 20 20 19 18 17 15 16 17 15 14 15 19 24 30 34 36 38 41 42 42 41 39 37 37 38 39 39 39 38 38 41 42 40 39 39 39 39 39 40 41 42 41 42 43 45 44 44 47 49 51 53 55 57 58 57 54 49 46 46 48 49 49 51 52 52 51 50 46 43 41 40 41 42
Wind_Direction
260 261 262 263 263 264 265 266 266 267 268 268 269 270 270 271 272 272 273 273 274 274 275 275 275 275 276 276 276 277 277 278 277 277 277 277 277 277 277 276 276 275 274 272 270 267 263 258 252 245 232 221 216 213 214 214 213 219 224 223 227 233 234 232 230 229 228 230 230 232 249 259 257 253 252 255 261 267 267 262 264 276 260 261 34 228 247 256
261 261 262 263 264 264 265 266 266 267 268 268 269 270 270 271 271 272 272 273 273 273 274 274 274 274 275 274 275 275 275 275 275 275 275 275 275 275 274 273 272 272 270 268 265 261 257 251 244 239 230 221 216 213 213 213 212 220 227 225 226 231 229 221 212 210 217 225 232 237 246 257 260 259 257 256 257 261 261 254 255 264 212 160 191 231 248 266
260 261 262 263 263 264 265 265 266 267 268 268 269 269 270 270 271 271 271 272 272 272 273 273 273 273 273 273 273 272 272 272 272 272 273 273 273 271 270 270 269 269 268 265 261 256 250 245 238 233 228 221 216 214 213 211 210 218 226 223 222 225 220 208 195 194 214 215 218 228 242 258 261 257 257 256 253 253 255 254 254 243 158 148 190 231 246 272
260 261 261 262 263 264 264 265 266 266 267 267 268 269 269 269 270 270 271 271 271 271 272 272 272 272 272 271 271 271 270 270 270 271 270 270 268 268 268 268 268 267 265 261 257 252 244 239 234 231 226 219 215 213 212 211 209 217 223 218 219 220 212 203 196 204 225 224 226 225 227 245 257 255 254 256 254 250 252 256 254 235 168 155 182 224 244 271
260 260 261 261 262 263 264 264 265 266 266 267 268 268 268 269 269 270 270 270 270 270 270 270 271 271 271 270 270 270 269 268 268 268 266 266 265 265 266 265 265 264 261 257 253 247 239 234 230 228 224 218 214 212 212 210 208 215 217 212 215 218 211 203 199 212 231 236 241 232 217 225 240 251 254 258 257 250 250 255 254 239 200 175 189 224 255 270
260 260 261 261 262 263 263 264 265 266 266 267 267 267 268 269 269 269 269 269 269 269 269 269 269 269 269 269 268 268 268 267 265 264 263 263 263 263 262 262 262 260 257 252 249 243 235 230 227 224 221 219 215 212 211 208 208 215 214 209 215 217 213 209 209 223 237 240 236 223 213 222 228 240 250 255 254 251 250 253 252 239 225 207 202 213 238 242
260 260 261 261 262 263 263 264 265 265 266 267 267 268 268 268 269 269 269 269 269 268 268 268 268 267 267 267 266 266 266 264 262 262 261 262 261 260 259 258 256 255 253 248 245 240 233 228 225 222 219 218 215 213 212 209 211 215 213 210 215 217 215 214 218 229 235 234 227 218 219 228 231 236 245 252 250 243 243 247 246 238 240 232 214 207 217 226
259 260 261 261 262 263 263 264 265 265 266 266 267 268 268 268 268 268 268 268 268 267 267 266 266 266 266 265 265 264 263 262 261 261 260 259 257 256 255 253 251 250 248 244 240 236 231 226 222 219 217 216 213 212 212 211 212 212 213 215 218 219 217 217 222 227 226 225 223 219 222 228 231 236 243 250 245 233 232 238 241 242 242 231 224 220 214 226
259 260 260 261 262 263 263 264 264 265 265 266 267 267 267 267 268 267 267 267 267 266 266 266 266 265 265 264 263 263 262 262 261 258 257 256 254 252 251 248 246 245 243 238 235 232 228 223 219 217 216 215 212 211 211 212 211 208 212 218 219 218 216 217 219 219 219 219 219 218 221 225 229 236 236 241 247 239 233 236 242 247 246 229 223 222 215 226
259 259 260 261 262 263 263 264 264 264 265 265 266 266 266 266 266 266 266 266 266 266 266 266 266 265 265 264 263 262 262 261 258 257 256 255 251 248 247 245 242 241 239 234 231 230 227 222 217 215 214 213 211 210 210 212 212 209 213 217 215 211 212 214 214 213 214 213 214 216 221 224 227 231 222 201 222 236 234 236 244 246 249 235 220 228 232 227
259 260 260 261 261 262 263 263 264 264 265 265 265 266 266 265 265 265 265 266 266 267 266 266 265 265 264 264 263 262 261 259 258 257 256 254 251 246 244 242 239 237 235 230 229 228 226 222 217 214 213 212 210 210 209 212 213 212 214 214 208 206 209 211 210 212 211 208 210 216 220 223 223 221 205 185 206 226 227 227 239 236 241 238 228 252 256 230
259 260 260 261 261 262 262 263 263 264 264 265 265 265 265 265 265 266 266 266 267 267 266 265 264 264 263 262 262 261 259 258 257 256 255 253 250 245 242 241 237 233 231 227 225 225 224 221 217 213 213 211 211 209 208 210 211 211 214 213 208 206 208 208 208 209 208 207 212 216 217 217 216 208 195 188 207 227 223 223 234 213 213 227 229 248 249 232
260 260 260 261 261 261 262 262 263 263 263 264 264 265 265 266 266 266 266 266 266 266 265 264 262 261 260 260 259 258 258 257 255 255 254 252 248 244 240 239 235 230 228 225 222 221 220 219 216 213 212 212 212 210 208 209 209 210 213 211 208 207 207 206 206 205 206 209 213 216 213 210 211 199 192 187 207 231 226 221 226 198 201 223 227 240 244 236
260 260 260 260 261 261 262 262 262 262 262 263 264 264 265 266 266 266 266 266 265 264 263 261 260 258 258 258 256 256 257 255 252 252 252 250 247 242 238 235 230 226 226 224 221 219 218 218 215 212 211 212 213 211 208 207 208 209 209 208 208 207 204 205 207 205 204 207 211 215 210 207 205 193 190 187 202 226 222 212 220 211 217 229 227 239 242 236
259 260 260 260 260 260 261 261 261 262 262 263 263 264 265 265 265 265 265 264 263 262 260 258 256 255 256 256 253 253 254 253 250 250 250 248 246 243 239 234 227 223 223 222 221 218 218 217 215 211 210 212 214 212 207 206 207 208 207 206 206 204 201 205 211 207 204 205 207 211 209 204 196 187 195 196 200 215 218 217 223 219 231 240 232 239 240 237
259 259 259 260 260 260 260 260 261 261 262 263 263 264 264 264 264 264 263 262 261 259 258 256 253 252 253 251 251 252 253 253 250 249 249 248 246 243 239 233 226 223 221 220 220 218 217 217 216 212 209 211 214 212 206 205 206 207 208 207 206 205 204 208 212 209 207 208 207 209 208 202 193 188 194 196 198 207 212 216 216 215 229 239 232 236 240 241
259 259 260 260 260 260 261 261 262 262 262 263 263 263 263 263 263 262 261 259 258 256 253 251 249 249 249 248 251 253 253 252 250 249 248 246 244 241 238 232 225 223 222 220 219 217 215 217 218 214 210 210 214 212 206 205 206 206 208 208 207 208 211 213 213 211 210 210 210 209 206 199 195 194 196 196 199 206 208 212 217 221 227 222 227 239 241 240
260 260 260 261 261 261 262 262 262 262 262 263 262 262 262 261 260 259 257 255 253 251 249 247 245 246 246 248 252 255 254 254 252 249 247 244 242 240 237 231 224 222 221 221 220 216 214 216 218 216 212 211 214 211 207 207 208 205 206 208 209 211 216 219 215 210 210 210 209 208 203 198 194 196 198 195 195 199 206 222 227 233 238 224 227 239 235 234
261 261 261 261 262 262 262 262 262 262 262 262 261 260 259 258 256 254 253 251 249 246 243 242 242 243 246 249 256 260 260 260 256 250 245 242 241 238 235 230 223 220 220 220 220 216 215 216 217 216 214 213 214 211 208 208 208 203 204 210 213 214 220 222 215 208 208 208 207 206 202 198 194 197 200 191 192 216 235 249 242 242 252 242 227 227 226 230
260 260 260 261 261 261 261 261 261 260 260 259 258 257 256 254 252 250 248 246 243 241 239 240 242 244 248 254 260 264 264 262 258 251 245 241 238 236 233 228 223 220 219 219 218 216 216 216 216 216 215 215 215 211 208 209 207 202 203 212 216 216 221 222 214 208 207 207 210 209 204 201 196 196 195 182 193 226 237 248 245 243 247 233 219 221 226 234
260 260 260 260 260 260 260 259 259 258 257 256 255 254 252 250 248 246 243 241 238 238 239 241 243 246 252 258 262 264 265 262 257 250 245 240 237 234 232 228 223 220 219 218 217 216 216 215 215 215 215 216 216 212 208 209 208 204 204 211 215 215 218 218 212 208 206 207 211 208 205 202 195 193 186 174 190 218 220 228 232 233 233 222 221 226 233 240
259 259 259 259 258 258 258 258 256 256 255 253 253 251 250 248 245 243 241 239 238 238 240 242 245 250 257 260 263 265 266 263 257 249 243 238 235 232 230 228 224 221 219 218 218 216 214 215 215 214 214 216 218 214 209 209 208 205 206 211 212 212 214 213 210 208 205 206 208 203 199 195 190 192 183 173 192 214 212 216 222 228 229 227 232 237 242 242
259 259 259 259 258 258 257 257 256 255 254 253 252 250 248 246 244 242 240 238 238 239 242 244 248 253 256 259 262 265 267 263 256 248 241 236 233 229 227 226 223 221 219 218 218 215 213 214 215 213 213 215 219 217 212 210 208 206 206 210 212 211 211 211 210 210 206 205 203 196 191 187 187 192 186 178 192 210 215 218 224 232 235 234 235 241 244 236
261 261 260 260 260 260 259 258 257 256 255 254 252 249 247 245 243 241 239 238 238 239 242 245 248 253 256 260 263 267 270 266 258 249 241 236 232 228 226 223 221 220 219 219 218 214 211 214 215 213 213 215 218 219 214 210 207 206 207 211 212 211 210 211 212 212 209 205 202 194 187 185 187 192 192 188 194 206 216 220 225 232 234 231 234 243 242 229
264 263 263 263 262 261 260 259 258 257 256 254 252 249 247 245 242 240 240 239 239 240 243 246 251 255 259 262 265 271 274 267 254 244 239 233 228 227 226 223 221 219 219 219 219 215 212 213 214 212 213 215 218 218 215 211 208 207 209 211 212 210 209 210 210 211 210 206 202 195 189 187 188 192 196 196 198 206 215 221 228 231 226 225 233 241 233 228
267 266 266 265 264 263 262 261 259 258 256 254 252 250 247 245 243 242 241 241 241 242 245 248 253 257 260 264 268 275 273 261 247 238 234 229 224 223 224 223 222 220 219 219 218 214 212 213 214 212 213 215 217 217 216 212 209 209 211 212 212 211 209 207 207 207 208 206 201 195 191 188 185 190 198 198 200 209 217 223 229 226 219 220 229 231 228 233
270 269 269 268 267 266 264 262 260 259 257 255 252 250 248 246 245 244 243 242 243 245 247 250 254 258 262 264 269 273 265 251 240 234 229 224 220 219 220 220 220 219 218 217 217 214 211 212 213 213 214 216 217 217 216 213 210 210 211 213 214 213 209 206 205 205 206 205 201 195 191 186 181 184 196 200 201 207 214 218 221 219 216 219 225 228 231 235
271 270 269 268 267 266 265 263 262 260 258 256 254 251 249 248 247 246 245 244 245 247 248 250 254 257 260 262 270 272 258 241 232 230 226 220 217 217 218 218 217 216 216 216 216 213 212 212 213 213 214 217 218 217 215 213 210 209 209 212 214 213 210 207 205 204 204 204 201 196 191 187 183 182 191 198 199 202 205 208 210 213 217 220 223 231 234 227
273 272 270 269 268 267 265 264 262 260 258 257 254 252 251 249 248 248 247 246 246 247 248 251 253 257 259 263 271 270 255 239 230 228 224 217 216 217 219 220 218 216 215 216 216 213 212 212 213 214 216 219 220 216 214 212 210 209 209 209 211 211 210 208 206 205 204 203 202 199 193 188 186 186 188 195 199 200 203 204 206 210 214 217 220 226 228 225
279 277 275 273 271 269 267 265 263 261 259 257 255 253 251 250 249 249 248 246 247 248 248 250 253 255 258 263 268 266 256 240 230 229 222 214 215 217 218 220 218 215 214 216 216 215 213 211 211 212 215 218 218 214 213 211 209 209 208 207 206 207 208 208 207 207 205 203 202 201 197 192 190 191 191 194 199 202 204 205 208 211 213 218 223 226 227 230
291 287 283 281 278 275 272 269 266 263 260 257 255 253 251 249 249 248 247 246 247 247 247 249 251 253 255 258 261 263 256 238 227 227 222 213 214 215 215 216 214 211 211 212 213 212 211 212 212 213 216 217 216 213 212 210 208 207 207 206 203 204 207 208 208 208 207 204 201 202 202 198 196 197 198 198 200 204 206 209 213 218 220 222 225 227 230 235
310 302 295 290 286 282 278 274 270 266 262 259 255 252 249 248 247 246 246 245 246 246 246 247 250 252 252 252 254 258 253 235 224 224 219 212 214 216 214 215 213 210 210 211 211 210 210 212 214 216 219 219 216 214 212 209 207 205 205 205 202 201 205 208 209 210 210 207 202 203 205 205 203 202 204 205 204 206 208 212 218 222 223 223 223 227 234 241
341 328 315 306 298 292 287 281 276 270 265 259 255 251 248 245 244 244 243 243 243 243 243 244 246 247 247 247 248 252 247 231 224 226 223 214 214 217 215 215 215 213 211 213 213 213 213 214 216 218 221 221 218 215 212 209 207 204 203 204 202 201 202 204 206 210 213 211 207 206 207 210 210 209 209 211 211 211 212 216 222 226 229 232 234 239 246 255
5 356 343 331 319 308 299 290 283 276 269 262 256 251 247 244 242 241 240 239 240 241 240 241 241 241 240 239 241 245 240 229 226 229 227 218 215 218 217 214 215 215 213 213 214 215 215 216 217 219 220 220 218 216 212 210 208 205 203 204 203 202 201 201 202 207 214 214 210 209 209 212 215 216 215 216 217 218 216 218 224 229 233 237 240 245 251 260
12 7 0 351 339 325 314 304 295 286 277 268 260 254 249 245 242 240 238 237 237 238 238 238 237 236 234 234 236 238 234 229 229 230 229 221 215 218 220 216 215 216 214 213 214 215 216 217 218 220 221 221 219 216 213 211 210 207 204 204 204 204 203 202 201 205 213 216 213 210 211 212 216 219 220 220 222 223 222 222 224 228 230 232 235 238 241 245
11 9 6 0 352 341 329 317 308 299 288 276 266 256 250 246 243 241 240 238 235 234 233 234 234 233 231 230 230 233 231 228 229 230 229 223 216 217 220 219 217 217 216 214 215 216 218 218 218 221 223 223 220 218 216 214 212 210 205 204 205 206 205 205 204 205 211 216 215 212 213 214 215 219 222 223 224 226 227 228 229 230 232 234 237 239 242 245
8 7 6 2 358 352 343 331 322 315 305 290 273 259 247 241 238 237 237 237 234 231 229 230 231 230 228 226 225 227 228 226 227 230 229 224 218 218 220 220 218 218 217 217 216 218 221 220 219 221 223 222 219 217 217 216 214 212 207 205 206 207 207 207 208 208 208 212 215 215 215 216 216 217 221 224 225 226 228 231 234 235 235 237 240 243 246 251
4 4 3 2 360 356 351 345 337 330 321 308 289 268 251 241 237 236 234 232 230 228 227 227 226 225 224 223 221 221 224 224 226 230 230 225 221 220 222 222 220 219 219 218 217 219 221 222 221 222 223 223 221 218 218 217 216 214 209 206 208 209 208 208 210 210 209 208 213 217 218 218 218 216 217 221 225 225 226 229 234 236 235 235 239 241 244 248
1 0 0 0 359 357 355 352 347 339 333 325 311 288 262 246 238 235 235 232 226 223 223 223 222 221 222 221 219 216 218 222 225 227 228 225 222 222 223 224 222 221 220 219 218 220 222 222 222 222 223 224 222 220 219 219 217 216 212 209 209 210 209 210 210 212 211 208 209 215 218 219 219 217 214 216 221 224 224 224 228 231 232 233 236 239 241 241
358 358 358 358 357 357 356 354 351 346 340 335 330 315 283 254 239 233 233 232 227 223 223 223 223 223 223 224 223 218 216 220 223 224 224 223 221 221 221 222 221 221 222 221 219 220 223 222 222 222 224 224 222 220 220 220 219 217 215 212 210 210 211 211 211 213 213 210 209 211 215 218 220 220 217 216 218 221 223 222 222 223 225 229 233 236 238 237
356 355 356 356 355 355 355 354 352 350 346 340 339 335 315 276 247 235 231 230 227 225 225 224 222 222 223 224 226 224 222 223 223 220 221 222 221 221 220 220 220 219 220 220 219 221 223 222 220 221 223 223 223 223 223 223 221 218 217 215 212 212 212 211 212 213 214 213 212 211 212 216 220 222 222 220 218 219 221 221 221 221 224 230 235 237 238 239
354 353 353 353 354 353 353 353 352 352 349 344 342 341 333 307 267 242 233 230 228 227 227 226 223 221 221 222 221 220 222 226 225 219 218 221 221 221 220 219 219 219 219 219 219 222 223 221 219 220 221 221 221 222 223 224 222 220 219 217 215 214 214 212 212 213 214 215 215 214 212 213 216 221 223 224 221 219 219 220 222 225 228 232 234 235 234 234
353 352 350 349 351 352 352 352 351 351 349 346 344 343 340 328 298 261 241 233 229 228 227 226 225 223 224 224 222 219 218 222 223 219 217 219 219 219 218 216 216 217 218 218 218 221 222 220 218 218 219 219 217 219 221 220 218 218 217 216 216 216 214 213 213 213 214 214 216 217 215 214 215 218 221 224 224 223 222 223 225 228 231 232 231 229 230 231
353 351 348 347 349 350 350 350 350 350 348 346 344 342 341 337 322 289 255 240 233 231 229 226 223 222 222 223 223 222 220 221 222 221 220 220 220 218 217 216 216 216 218 218 217 219 219 218 218 217 217 217 216 217 220 219 216 215 215 214 215 216 214 213 213 214 214 215 216 218 218 217 217 218 218 220 223 223 224 225 226 226 228 231 232 230 229 231
353 350 346 345 346 347 347 348 348 349 347 345 342 340 341 338 330 313 278 251 238 233 231 229 226 224 222 222 222 222 221 221 222 221 221 222 222 220 219 219 218 219 221 221 218 219 219 218 218 217 217 217 216 218 221 221 218 216 216 215 215 215 214 213 213 214 215 216 216 218 219 219 220 219 218 217 218 220 221 222 222 223 224 226 228 230 231 231
352 349 345 343 343 343 345 346 347 346 345 343 340 337 338 335 328 320 302 273 250 239 233 231 230 227 225 224 224 223 223 223 224 223 222 222 222 220 219 220 220 219 222 222 220 219 219 217 218 218 218 219 218 217 221 222 219 217 217 217 216 216 216 215 213 214 215 216 216 217 218 220 221 221 220 219 218 217 217 218 219 220 221 222 222 225 229 231
349 348 345 343 341 340 342 344 345 344 342 340 339 337 336 331 323 320 313 294 269 251 240 234 231 228 227 226 225 224 225 226 226 227 226 224 223 219 218 220 220 217 219 222 220 218 218 216 216 215 216 217 217 216 219 222 220 216 217 218 216 216 218 218 215 214 214 215 215 216 217 220 222 223 222 222 221 219 218 219 222 223 222 223 224 223 224 227
345 345 344 343 339 336 338 341 342 341 339 337 337 337 336 327 320 318 314 305 289 269 252 241 236 232 232 232 230 228 227 227 226 227 226 225 223 220 218 222 224 219 217 220 219 218 216 214 213 214 214 216 215 214 216 220 219 216 217 218 216 214 216 218 217 215 215 214 214 216 217 220 223 224 223 223 224 223 222 222 225 228 226 226 228 228 228 231
340 342 343 342 338 334 334 337 339 338 336 336 336 336 334 327 322 318 313 308 301 286 268 253 243 236 234 233 231 228 226 225 225 226 226 225 223 219 216 220 224 220 214 212 213 215 215 210 209 211 214 215 215 214 216 219 219 217 217 218 218 216 216 216 215 214 214 214 214 215 217 219 222 225 225 225 224 225 226 226 227 231 232 232 232 232 233 236
337 339 340 340 337 333 331 333 335 334 333 333 334 335 333 327 324 322 314 306 302 297 288 270 248 234 228 229 229 226 224 223 223 224 225 225 223 219 215 217 221 220 214 209 206 209 213 210 207 209 211 212 212 211 212 215 217 216 217 217 217 217 217 218 217 214 213 213 213 214 216 218 221 225 227 228 227 226 226 226 226 229 233 237 238 238 237 239
333 335 336 338 336 332 328 328 331 331 329 329 332 335 333 324 322 323 313 303 299 298 292 279 258 237 228 227 228 226 223 223 224 223 224 224 223 219 217 217 220 220 217 210 206 209 213 211 207 208 209 209 209 208 207 210 212 213 216 216 215 215 216 217 219 218 215 213 212 212 213 214 216 223 227 229 230 229 227 226 226 227 229 234 239 242 243 243
329 330 332 335 334 330 326 324 326 326 324 327 333 334 327 321 320 319 312 305 299 291 285 282 273 255 239 232 231 229 224 223 224 224 223 223 224 223 222 222 222 222 220 214 209 213 218 216 212 211 210 209 211 211 210 210 211 212 215 214 213 214 215 215 216 218 217 215 214 213 213 211 212 219 225 228 231 232 231 229 228 229 229 230 234 240 244 246
Height
10955 10956 10957 10958 10959 10959 10960 10961 10962 10963 10964 10966 10967 10968 10970 10970 10971 10972 10972 10973 10973 10973 10973 10974 10974 10974 10974 10973 10973 10973 10974 10975 10975 10975 10975 10976 10977 10978 10979 10979 10980 10982 10983 10984 10984 10985 10986 10987 10988 10988 10989 10989 10990 10991 10991 10991 10992 10993 10993 10993 10993 10993 10993 10993 10994 10995 10996 10997 10998 11000 11002 11002 11002 11002 11003 11004 11006 11009 11012 11011 11010 11011 11011 11011 11012 11012 11011 11011
10950 10951 10952 10953 10954 10955 10955 10956 10957 10958 10960 10961 10962 10963 10965 10966 10967 10967 10967 10968 10969 10969 10969 10969 10969 10969 10969 10969 10969 10969 10970 10971 10971 10971 10971 10972 10974 10974 10975 10976 10977 10978 10979 10980 10981 10982 10983 10984 10985 10985 10986 10986 10987 10988 10989 10990 10991 10991 10992 10992 10992 10992 10992 10992 10993 10994 10995 10995 10997 11000 11002 11002 11002 11002 11002 11002 11004 11008 11011 11010 11009 11010 11010 11011 11011 11011 11011 11011
10945 10946 10947 10948 10949 10950 10951 10951 10952 10954 10955 10956 10957 10958 10960 10961 10962 10962 10963 10963 10964 10965 10965 10965 10965 10965 10965 10965 10965 10965 10966 10967 10967 10967 10968 10969 10970 10970 10971 10972 10973 10975 10976 10977 10978 10979 10980 10980 10981 10981 10982 10984 10985 10986 10987 10988 10989 10989 10989 10990 10990 10991 10991 10992 10992 10992 10993 10993 10995 10998 11001 11001 11001 11001 11001 11001 11003 11006 11008 11009 11008 11009 11010 11011 11011 11010 11010 11010
10940 10941 10942 10943 10944 10945 10946 10947 10948 10949 10950 10951 10952 10953 10955 10956 10957 10958 10958 10959 10959 10961 10961 10961 10960 10960 10960 10960 10960 10960 10961 10963 10963 10963 10964 10964 10966 10967 10968 10969 10970 10972 10973 10974 10975 10976 10977 10977 10977 10978 10980 10982 10983 10983 10984 10985 10986 10986 10987 10987 10988 10989 10990 10991 10991 10991 10991 10991 10991 10994 10998 11000 11000 11000 11000 11001 11002 11004 11006 11007 11007 11008 11009 11010 11010 11010 11009 11010
10935 10936 10937 10938 10939 10940 10941 10942 10943 10944 10945 10946 10947 10948 10950 10951 10952 10953 10953 10954 10955 10956 10957 10956 10956 10956 10956 10955 10955 10956 10957 10959 10959 10959 10959 10960 10962 10963 10964 10966 10967 10969 10970 10971 10972 10973 10973 10973 10973 10975 10977 10979 10980 10981 10981 10983 10984 10984 10985 10985 10986 10987 10988 10989 10990 10988 10988 10988 10987 10990 10996 10998 10999 10999 10999 11000 11001 11001 11004 11005 11005 11006 11007 11008 11009 11009 11009 11010
10930 10931 10932 10933 10934 10935 10936 10937 10938 10939 10940 10940 10942 10943 10945 10946 10947 10948 10948 10949 10950 10951 10952 10952 10951 10951 10950 10950 10950 10951 10952 10954 10955 10954 10954 10956 10958 10960 10961 10963 10964 10965 10967 10968 10968 10969 10970 10970 10970 10972 10974 10975 10976 10978 10979 10980 10982 10982 10983 10984 10984 10985 10987 10988 10988 10987 10987 10987 10986 10990 10994 10996 10997 10998 10998 10999 10999 11000 11001 11003 11003 11004 11006 11007 11008 11008 11009 11010
10924 10926 10927 10928 10929 10930 10931 10932 10933 10934 10935 10935 10936 10938 10940 10941 10942 10943 10943 10943 10944 10946 10947 10947 10946 10946 10945 10945 10945 10946 10947 10949 10950 10949 10950 10953 10955 10956 10957 10959 10961 10961 10963 10965 10965 10966 10966 10967 10968 10970 10971 10971 10973 10975 10976 10978 10979 10980 10981 10982 10983 10984 10985 10985 10986 10986 10986 10987 10987 10990 10993 10994 10995 10996 10997 10997 10997 10997 10999 11001 11002 11003 11004 11006 11007 11008 11009 11009
10919 10920 10922 10923 10924 10925 10926 10927 10928 10929 10929 10930 10931 10932 10934 10936 10937 10937 10938 10938 10939 10940 10942 10942 10941 10940 10940 10940 10941 10942 10942 10944 10946 10945 10946 10949 10951 10952 10954 10955 10957 10957 10960 10962 10963 10963 10963 10964 10965 10967 10968 10968 10970 10972 10973 10975 10976 10977 10978 10979 10980 10982 10982 10983 10984 10984 10986 10987 10988 10990 10992 10993 10993 10995 10996 10996 10995 10995 10996 10999 11000 11002 11003 11005 11006 11007 11008 11008
10914 10915 10916 10917 10919 10919 10920 10921 10922 10923 10924 10925 10926 10927 10929 10930 10931 10932 10932 10933 10933 10935 10936 10936 10936 10935 10934 10935 10936 10937 10937 10940 10942 10941 10941 10944 10946 10948 10950 10951 10952 10954 10957 10959 10959 10959 10960 10961 10963 10964 10964 10965 10967 10968 10970 10972 10973 10975 10976 10977 10978 10979 10980 10981 10982 10983 10984 10986 10987 10989 10991 10992 10993 10994 10995 10995 10996 10995 10996 10998 11000 11001 11003 11004 11005 11006 11006 11006
10909 10910 10911 10912 10913 10914 10915 10916 10916 10917 10918 10919 10920 10922 10923 10924 10926 10927 10927 10928 10928 10929 10931 10931 10930 10930 10929 10930 10931 10932 10933 10936 10937 10936 10937 10940 10942 10944 10945 10946 10948 10951 10953 10955 10956 10956 10957 10958 10960 10961 10961 10963 10964 10965 10967 10969 10971 10972 10973 10974 10975 10977 10978 10979 10981 10982 10984 10985 10987 10988 10990 10992 10992 10993 10995 10996 10997 10996 10996 10997 10999 11000 11002 11004 11005 11005 11005 11005
10903 10904 10905 10907 10908 10909 10909 10910 10911 10912 10913 10914 10915 10916 10917 10919 10920 10921 10922 10923 10923 10924 10926 10927 10925 10925 10924 10925 10927 10927 10928 10931 10932 10932 10933 10935 10938 10940 10940 10942 10945 10948 10950 10952 10953 10953 10954 10955 10957 10958 10959 10960 10961 10962 10964 10966 10968 10970 10971 10972 10973 10975 10976 10978 10979 10981 10983 10984 10986 10988 10990 10991 10991 10993 10995 10996 10995 10994 10995 10996 10998 11000 11002 11004 11004 11004 11004 11005
10897 10899 10900 10901 10902 10903 10904 10904 10905 10906 10907 10908 10909 10911 10912 10913 10915 10916 10917 10917 10919 10919 10921 10921 10920 10920 10919 10920 10922 10922 10922 10926 10928 10927 10928 10930 10933 10935 10936 10938 10942 10944 10946 10948 10949 10950 10951 10952 10953 10955 10956 10957 10958 10960 10962 10964 10965 10967 10969 10970 10971 10973 10974 10976 10977 10979 10981 10983 10985 10987 10989 10990 10990 10992 10993 10995 10994 10994 10995 10996 10997 11001 11004 11005 11003 11003 11004 11004
10892 10893 10894 10895 10896 10897 10898 10899 10900 10901 10902 10903 10904 10905 10907 10908 10909 10910 10911 10912 10913 10914 10915 10915 10914 10914 10913 10915 10918 10916 10916 10921 10923 10922 10923 10926 10928 10931 10932 10934 10938 10941 10942 10944 10945 10946 10947 10948 10950 10952 10953 10954 10955 10957 10960 10962 10963 10965 10966 10967 10969 10970 10972 10974 10976 10978 10980 10982 10984 10986 10988 10988 10989 10991 10993 10994 10995 10995 10996 10996 10996 11000 11004 11005 11003 11003 11004 11004
10886 10887 10888 10890 10891 10892 10893 10894 10894 10896 10897 10898 10899 10900 10901 10903 10903 10905 10905 10906 10907 10908 10909 10909 10909 10908 10907 10911 10912 10910 10912 10917 10918 10917 10918 10921 10923 10926 10928 10930 10934 10937 10938 10940 10941 10943 10943 10944 10947 10949 10950 10951 10952 10954 10957 10959 10960 10963 10964 10965 10966 10968 10970 10972 10974 10976 10978 10980 10982 10984 10986 10987 10989 10992 10993 10994 10994 10994 10997 10997 10997 10998 11001 11003 11002 11002 11003 11004
10881 10882 10883 10884 10885 10886 10887 10888 10889 10890 10892 10893 10894 10895 10896 10897 10898 10898 10899 10900 10901 10902 10903 10903 10903 10902 10903 10906 10906 10906 10908 10911 10913 10913 10913 10916 10918 10921 10924 10927 10930 10932 10933 10935 10937 10939 10939 10941 10943 10945 10947 10948 10950 10951 10954 10956 10958 10960 10961 10962 10964 10965 10968 10970 10973 10975 10977 10979 10981 10983 10985 10986 10989 10992 10992 10993 10994 10995 10997 10998 10998 10999 10999 11000 11001 11001 11002 11003
10876 10877 10878 10879 10880 10881 10882 10883 10884 10885 10886 10888 10889 10889 10890 10891 10892 10892 10893 10894 10895 10896 10897 10897 10897 10896 10899 10901 10900 10902 10906 10908 10909 10908 10909 10912 10914 10917 10919 10922 10926 10928 10929 10931 10933 10934 10936 10938 10939 10941 10944 10946 10947 10948 10952 10954 10955 10957 10958 10960 10962 10963 10965 10968 10970 10973 10975 10977 10979 10981 10983 10985 10987 10990 10991 10993 10995 10996 10997 10998 10999 11000 11000 11001 11001 11001 11002 11002
10871 10872 10873 10874 10875 10876 10876 10878 10879 10880 10881 10882 10883 10884 10885 10885 10886 10887 10887 10889 10890 10891 10891 10891 10892 10892 10895 10897 10897 10899 10903 10904 10904 10904 10906 10908 10909 10911 10914 10918 10922 10924 10926 10927 10928 10930 10933 10935 10935 10938 10940 10942 10943 10945 10949 10951 10953 10955 10956 10958 10959 10961 10963 10965 10968 10970 10973 10976 10978 10979 10982 10984 10985 10988 10989 10991 10993 10996 10997 10998 10999 10999 11001 11002 11002 11001 11002 11002
10866 10867 10868 10869 10869 10870 10871 10873 10874 10875 10876 10876 10877 10878 10879 10880 10881 10881 10882 10884 10885 10886 10886 10887 10887 10889 10892 10894 10894 10896 10898 10899 10899 10899 10901 10902 10904 10907 10910 10914 10917 10919 10921 10922 10924 10926 10929 10931 10932 10935 10937 10939 10940 10942 10946 10948 10950 10953 10954 10955 10957 10958 10960 10963 10966 10968 10971 10974 10976 10978 10980 10982 10984 10986 10987 10989 10991 10993 10995 10997 10997 10997 10998 11000 11001 11001 11001 11002
10861 10862 10863 10864 10864 10865 10866 10867 10868 10869 10870 10871 10872 10873 10874 10875 10876 10877 10878 10879 10880 10882 10882 10882 10884 10886 10889 10890 10891 10892 10894 10894 10893 10894 10896 10897 10899 10902 10905 10909 10912 10914 10916 10917 10919 10923 10926 10927 10929 10931 10933 10935 10936 10940 10944 10945 10947 10950 10952 10953 10954 10956 10959 10961 10964 10966 10968 10971 10974 10976 10978 10980 10982 10983 10984 10986 10989 10991 10993 10994 10994 10994 10995 10997 10999 10999 11000 11001
10856 10857 10858 10859 10859 10860 10861 10862 10863 10864 10865 10866 10867 10868 10869 10870 10871 10873 10874 10875 10877 10877 10877 10878 10881 10883 10885 10886 10887 10887 10888 10888 10887 10890 10891 10892 10894 10897 10900 10904 10906 10908 10910 10913 10916 10919 10921 10923 10926 10928 10930 10932 10933 10937 10940 10941 10944 10947 10949 10951 10952 10955 10957 10959 10962 10964 10966 10969 10972 10975 10977 10978 10979 10980 10982 10984 10987 10990 10991 10991 10991 10991 10993 10996 10997 10998 10999 11001
10852 10853 10853 10854 10855 10856 10857 10858 10859 10860 10861 10862 10863 10864 10865 10867 10867 10869 10870 10871 10873 10873 10873 10875 10877 10880 10881 10882 10882 10882 10882 10882 10882 10884 10886 10887 10889 10892 10895 10899 10901 10904 10906 10909 10912 10913 10916 10920 10923 10925 10926 10928 10929 10933 10936 10938 10941 10945 10947 10949 10950 10953 10955 10957 10960 10962 10964 10966 10969 10972 10974 10976 10978 10979 10980 10983 10986 10988 10988 10989 10989 10990 10993 10995 10996 10997 10998 11000
10848 10849 10850 10850 10851 10852 10853 10854 10855 10856 10857 10858 10859 10860 10862 10863 10864 10865 10866 10868 10868 10869 10869 10872 10874 10877 10877 10877 10877 10877 10877 10877 10877 10879 10880 10882 10884 10887 10891 10894 10897 10899 10902 10905 10906 10908 10913 10917 10919 10921 10923 10924 10925 10929 10933 10935 10938 10941 10944 10947 10949 10951 10953 10955 10958 10960 10962 10965 10967 10970 10972 10973 10975 10976 10978 10980 10983 10985 10986 10986 10987 10989 10992 10994 10994 10996 10998 10999
10845 10846 10846 10847 10848 10848 10849 10850 10851 10852 10853 10854 10855 10857 10858 10859 10860 10861 10863 10864 10864 10865 10867 10869 10871 10872 10872 10872 10872 10871 10871 10872 10872 10873 10875 10876 10879 10883 10886 10889 10892 10895 10898 10899 10900 10905 10910 10913 10915 10917 10919 10921 10922 10925 10929 10932 10935 10938 10941 10945 10948 10949 10951 10954 10956 10957 10960 10963 10965 10967 10969 10970 10971 10973 10975 10978 10980 10982 10983 10984 10985 10987 10991 10993 10993 10995 10997 10998
10842 10842 10843 10844 10844 10845 10846 10847 10847 10848 10849 10850 10852 10853 10854 10855 10857 10858 10859 10859 10860 10862 10863 10865 10866 10867 10867 10867 10867 10866 10867 10867 10867 10869 10871 10872 10875 10878 10881 10884 10888 10890 10893 10894 10897 10902 10907 10908 10910 10914 10917 10918 10919 10921 10925 10928 10931 10935 10939 10942 10945 10947 10949 10951 10953 10955 10958 10961 10963 10965 10967 10968 10969 10971 10973 10976 10978 10979 10980 10982 10984 10987 10990 10991 10992 10993 10995 10996
10839 10839 10840 10840 10841 10841 10842 10843 10844 10845 10846 10847 10848 10849 10850 10851 10853 10853 10854 10855 10856 10858 10859 10861 10862 10862 10863 10862 10861 10862 10863 10862 10862 10863 10865 10867 10871 10874 10877 10881 10883 10886 10888 10890 10893 10899 10903 10904 10907 10911 10913 10913 10914 10917 10921 10925 10928 10932 10936 10940 10943 10944 10946 10948 10950 10952 10955 10958 10961 10963 10965 10966 10967 10969 10971 10974 10976 10977 10978 10980 10983 10985 10987 10989 10990 10991 10993 10994
10836 10836 10837 10837 10837 10838 10839 10839 10840 10841 10842 10843 10844 10845 10846 10847 10848 10849 10850 10850 10852 10854 10856 10857 10858 10858 10858 10857 10858 10859 10857 10856 10857 10857 10859 10863 10867 10870 10874 10877 10879 10881 10885 10887 10891 10895 10899 10901 10904 10907 10908 10909 10910 10914 10918 10922 10926 10929 10933 10937 10940 10941 10944 10946 10948 10950 10952 10955 10958 10961 10963 10964 10966 10968 10970 10972 10974 10975 10977 10979 10981 10983 10985 10987 10989 10990 10992 10994
10832 10833 10833 10833 10834 10834 10835 10835 10836 10837 10838 10839 10840 10841 10842 10843 10844 10844 10845 10846 10849 10851 10852 10853 10853 10853 10853 10853 10853 10854 10851 10851 10852 10852 10855 10860 10863 10866 10869 10872 10874 10877 10881 10884 10886 10890 10894 10897 10900 10902 10904 10905 10907 10910 10914 10918 10922 10926 10930 10934 10936 10939 10942 10944 10946 10948 10950 10952 10956 10958 10960 10962 10965 10967 10968 10970 10973 10974 10976 10977 10979 10981 10983 10986 10988 10989 10991 10992
10829 10829 10829 10829 10829 10830 10830 10831 10832 10833 10833 10834 10835 10837 10838 10838 10839 10840 10840 10843 10846 10846 10847 10848 10848 10848 10848 10849 10850 10849 10846 10846 10847 10847 10851 10856 10860 10862 10865 10867 10870 10874 10878 10880 10882 10887 10891 10893 10896 10898 10901 10902 10902 10905 10909 10914 10918 10922 10927 10930 10932 10936 10940 10941 10943 10945 10947 10950 10953 10955 10958 10960 10962 10965 10967 10968 10970 10972 10974 10975 10977 10979 10981 10983 10986 10988 10989 10990
10825 10825 10825 10825 10825 10825 10826 10826 10827 10828 10828 10830 10831 10832 10833 10834 10835 10835 10837 10840 10841 10841 10843 10844 10843 10843 10844 10846 10846 10844 10842 10843 10843 10844 10849 10854 10857 10859 10861 10864 10869 10873 10876 10877 10880 10884 10887 10889 10893 10897 10899 10897 10896 10900 10906 10911 10915 10919 10924 10927 10930 10934 10936 10939 10941 10943 10945 10948 10950 10953 10955 10958 10960 10962 10965 10966 10968 10970 10971 10973 10974 10976 10979 10981 10983 10985 10986 10987
10822 10821 10821 10821 10821 10821 10821 10821 10822 10822 10823 10824 10825 10827 10828 10829 10830 10831 10832 10835 10836 10836 10838 10839 10838 10839 10842 10843 10842 10841 10840 10841 10841 10842 10846 10851 10853 10856 10859 10862 10867 10871 10873 10874 10877 10880 10883 10886 10888 10889 10888 10886 10889 10896 10903 10908 10912 10916 10921 10924 10927 10930 10933 10935 10938 10940 10942 10945 10948 10950 10952 10955 10957 10959 10962 10964 10966 10968 10970 10971 10973 10975 10978 10980 10981 10983 10984 10985
10819 10818 10818 10818 10817 10817 10817 10817 10817 10817 10818 10819 10820 10821 10822 10824 10825 10825 10827 10830 10830 10831 10833 10834 10834 10835 10838 10839 10838 10837 10837 10838 10838 10839 10844 10848 10849 10851 10855 10859 10862 10866 10868 10870 10872 10875 10878 10880 10881 10881 10881 10882 10888 10895 10900 10904 10909 10914 10918 10920 10924 10927 10929 10932 10935 10937 10939 10942 10945 10947 10950 10952 10954 10956 10959 10961 10964 10966 10968 10970 10972 10974 10976 10978 10980 10982 10983 10984
10817 10816 10815 10815 10814 10814 10813 10813 10813 10813 10813 10813 10814 10815 10816 10817 10818 10819 10821 10824 10824 10826 10828 10829 10830 10832 10834 10835 10835 10835 10835 10835 10835 10836 10840 10843 10845 10847 10852 10855 10858 10862 10864 10865 10867 10870 10873 10875 10877 10879 10880 10883 10889 10893 10897 10901 10905 10910 10914 10917 10920 10923 10926 10929 10932 10934 10936 10939 10943 10945 10947 10950 10952 10954 10956 10958 10961 10963 10966 10968 10970 10973 10975 10976 10978 10980 10981 10983
10815 10814 10813 10813 10812 10811 10810 10809 10808 10808 10808 10808 10808 10809 10810 10811 10812 10813 10815 10817 10818 10820 10823 10824 10826 10828 10830 10831 10831 10832 10833 10832 10832 10833 10835 10840 10842 10845 10849 10852 10856 10859 10861 10863 10865 10868 10871 10873 10875 10876 10877 10880 10885 10889 10893 10898 10902 10906 10910 10912 10915 10918 10922 10926 10929 10932 10933 10936 10940 10943 10946 10948 10950 10952 10953 10955 10958 10961 10963 10966 10968 10971 10972 10974 10976 10977 10979 10980
10814 10813 10812 10811 10809 10808 10807 10806 10804 10804 10803 10803 10803 10804 10805 10806 10807 10807 10809 10811 10812 10814 10818 10820 10821 10823 10825 10827 10828 10829 10830 10829 10829 10830 10832 10837 10841 10842 10846 10849 10852 10854 10857 10861 10863 10865 10867 10869 10870 10871 10872 10876 10880 10885 10890 10894 10897 10902 10906 10908 10911 10915 10919 10923 10926 10928 10930 10933 10937 10941 10945 10947 10948 10949 10951 10954 10956 10958 10961 10963 10966 10968 10970 10973 10974 10976 10977 10978
10813 10812 10810 10809 10807 10806 10804 10802 10801 10800 10799 10799 10799 10800 10801 10802 10802 10802 10803 10806 10808 10811 10814 10816 10816 10818 10821 10823 10825 10826 10826 10826 10826 10827 10829 10834 10838 10840 10842 10845 10848 10850 10854 10856 10858 10860 10862 10863 10866 10868 10870 10874 10878 10882 10886 10890 10893 10898 10902 10905 10908 10912 10915 10919 10922 10925 10926 10930 10935 10940 10943 10944 10945 10947 10949 10952 10954 10956 10958 10961 10963 10966 10968 10970 10972 10974 10975 10977
10812 10811 10809 10807 10805 10803 10801 10800 10798 10797 10795 10795 10795 10796 10797 10798 10798 10798 10800 10802 10804 10807 10809 10810 10812 10814 10817 10819 10821 10823 10823 10823 10824 10824 10826 10830 10834 10836 10838 10841 10844 10847 10849 10852 10854 10856 10857 10859 10863 10866 10868 10871 10875 10880 10883 10887 10891 10895 10899 10902 10905 10908 10911 10915 10919 10921 10923 10927 10933 10938 10939 10939 10941 10944 10946 10949 10952 10954 10957 10959 10961 10964 10965 10967 10969 10972 10973 10975
10811 10809 10808 10806 10804 10801 10799 10798 10796 10794 10792 10791 10790 10791 10792 10792 10792 10793 10795 10798 10800 10803 10804 10806 10808 10811 10813 10815 10817 10820 10821 10821 10821 10820 10823 10827 10830 10832 10834 10837 10840 10842 10845 10848 10851 10853 10854 10857 10861 10862 10863 10866 10871 10876 10879 10883 10887 10891 10895 10899 10901 10904 10908 10912 10915 10917 10921 10925 10929 10933 10934 10935 10939 10942 10944 10947 10949 10952 10955 10956 10959 10960 10963 10965 10967 10969 10971 10972
10809 10808 10806 10804 10802 10800 10798 10795 10794 10792 10790 10788 10787 10787 10787 10787 10788 10790 10791 10793 10796 10799 10801 10802 10803 10805 10807 10809 10813 10816 10817 10818 10818 10818 10821 10824 10826 10829 10831 10833 10836 10839 10842 10845 10848 10850 10851 10854 10857 10858 10860 10863 10869 10873 10876 10879 10882 10886 10892 10895 10897 10901 10905 10908 10911 10914 10918 10922 10926 10928 10930 10934 10938 10940 10943 10945 10947 10949 10952 10954 10956 10958 10960 10962 10964 10966 10968 10969
10808 10806 10804 10802 10800 10798 10796 10793 10792 10790 10788 10786 10785 10784 10783 10784 10785 10787 10788 10789 10792 10794 10795 10796 10797 10799 10802 10805 10808 10811 10813 10814 10814 10816 10818 10821 10824 10826 10828 10830 10833 10836 10838 10841 10844 10846 10847 10850 10852 10855 10858 10861 10866 10869 10871 10874 10878 10882 10887 10891 10894 10898 10901 10904 10907 10911 10915 10919 10922 10924 10928 10932 10935 10936 10940 10942 10944 10946 10949 10951 10954 10956 10958 10959 10961 10963 10964 10965
10806 10804 10803 10801 10799 10796 10794 10792 10790 10788 10786 10784 10783 10782 10780 10780 10782 10783 10784 10786 10788 10790 10790 10791 10794 10797 10800 10803 10805 10808 10809 10809 10811 10814 10816 10817 10819 10821 10823 10825 10828 10832 10834 10837 10841 10842 10843 10845 10849 10853 10855 10858 10862 10865 10867 10870 10874 10879 10883 10887 10891 10894 10897 10901 10904 10907 10911 10915 10919 10922 10925 10929 10931 10933 10936 10940 10942 10943 10946 10949 10951 10953 10955 10957 10959 10960 10961 10962
10804 10803 10801 10799 10797 10795 10793 10791 10789 10787 10785 10783 10782 10780 10779 10778 10778 10779 10780 10782 10784 10786 10787 10788 10792 10795 10798 10800 10803 10806 10807 10807 10808 10811 10813 10814 10815 10817 10819 10822 10825 10827 10830 10833 10837 10837 10837 10841 10846 10849 10851 10855 10860 10863 10865 10868 10871 10876 10879 10883 10887 10889 10892 10897 10900 10903 10908 10912 10916 10919 10922 10926 10928 10929 10932 10936 10939 10941 10944 10946 10948 10950 10952 10954 10956 10957 10958 10959
10802 10801 10799 10798 10796 10794 10791 10789 10787 10785 10783 10782 10781 10779 10778 10776 10776 10776 10777 10778 10780 10782 10784 10787 10790 10792 10794 10795 10798 10801 10804 10804 10805 10808 10809 10810 10811 10814 10817 10820 10822 10824 10826 10829 10831 10831 10833 10838 10843 10846 10849 10853 10856 10858 10860 10863 10867 10871 10874 10879 10883 10885 10889 10894 10897 10901 10906 10910 10913 10916 10919 10922 10924 10926 10928 10932 10935 10939 10941 10943 10945 10947 10949 10951 10953 10955 10956 10957
10801 10799 10798 10796 10794 10792 10790 10788 10786 10784 10782 10780 10779 10778 10777 10775 10774 10774 10775 10776 10778 10779 10781 10784 10787 10790 10791 10792 10794 10797 10798 10799 10800 10803 10804 10805 10808 10810 10813 10816 10818 10820 10821 10824 10826 10827 10830 10835 10839 10842 10844 10847 10850 10851 10852 10854 10859 10863 10868 10874 10878 10881 10885 10890 10894 10898 10902 10905 10909 10911 10915 10919 10920 10922 10926 10929 10932 10936 10938 10940 10942 10944 10946 10947 10949 10952 10954 10955
10799 10798 10796 10794 10792 10790 10788 10786 10784 10783 10781 10779 10778 10777 10776 10775 10774 10773 10773 10774 10775 10776 10778 10780 10782 10784 10785 10787 10790 10792 10793 10794 10796 10799 10801 10803 10805 10808 10811 10813 10815 10816 10817 10819 10822 10824 10827 10830 10833 10836 10839 10842 10844 10844 10844 10848 10854 10859 10863 10869 10872 10875 10880 10884 10888 10892 10896 10900 10904 10907 10911 10915 10917 10920 10924 10926 10929 10932 10934 10937 10939 10941 10943 10945 10946 10948 10950 10951
10798 10796 10794 10792 10791 10789 10787 10785 10783 10781 10779 10778 10776 10775 10774 10774 10773 10772 10771 10771 10772 10773 10775 10777 10778 10779 10781 10783 10785 10786 10788 10789 10792 10796 10799 10802 10805 10807 10809 10811 10812 10814 10814 10816 10819 10821 10823 10826 10829 10832 10835 10837 10839 10840 10842 10847 10853 10857 10861 10864 10868 10871 10875 10878 10882 10886 10891 10896 10901 10904 10907 10910 10912 10916 10920 10923 10925 10928 10931 10934 10937 10939 10940 10942 10944 10945 10946 10948
10797 10795 10792 10790 10789 10787 10785 10783 10781 10779 10778 10777 10775 10774 10773 10772 10771 10771 10770 10770 10769 10770 10771 10773 10774 10776 10778 10779 10780 10782 10785 10788 10791 10795 10799 10801 10803 10805 10807 10807 10809 10811 10812 10814 10816 10818 10820 10823 10826 10828 10831 10832 10835 10838 10841 10844 10849 10854 10857 10861 10865 10869 10870 10872 10877 10882 10887 10893 10897 10901 10903 10906 10908 10912 10916 10919 10922 10925 10928 10931 10933 10935 10937 10939 10940 10941 10943 10944
10795 10793 10791 10789 10787 10785 10784 10782 10779 10778 10776 10775 10773 10772 10771 10771 10770 10769 10769 10768 10767 10768 10768 10769 10770 10772 10773 10774 10777 10781 10784 10787 10791 10794 10797 10799 10800 10802 10803 10804 10805 10808 10810 10811 10813 10815 10818 10820 10821 10823 10824 10825 10829 10834 10837 10839 10845 10850 10852 10855 10861 10864 10866 10869 10874 10879 10884 10889 10894 10898 10901 10902 10904 10908 10911 10915 10919 10922 10924 10926 10928 10930 10932 10934 10936 10937 10939 10941
10793 10791 10789 10787 10785 10783 10782 10780 10778 10776 10774 10773 10772 10771 10770 10769 10767 10767 10767 10766 10766 10765 10765 10766 10768 10770 10772 10774 10778 10781 10783 10785 10788 10790 10792 10794 10796 10798 10800 10801 10802 10806 10809 10810 10812 10814 10816 10817 10818 10818 10818 10820 10824 10829 10832 10834 10839 10844 10847 10850 10854 10857 10860 10864 10870 10875 10880 10885 10890 10894 10897 10898 10900 10903 10907 10911 10915 10918 10921 10922 10923 10924 10927 10930 10931 10933 10936 10939
10790 10789 10787 10785 10783 10781 10780 10778 10776 10774 10772 10771 10770 10769 10768 10767 10766 10765 10764 10764 10764 10763 10763 10764 10766 10768 10770 10772 10773 10775 10778 10780 10783 10784 10785 10787 10790 10793 10796 10797 10798 10801 10804 10806 10809 10812 10813 10814 10815 10815 10816 10819 10823 10827 10830 10832 10835 10839 10842 10845 10849 10853 10855 10858 10863 10868 10873 10879 10885 10889 10892 10894 10896 10898 10903 10907 10911 10914 10917 10919 10920 10920 10922 10925 10927 10930 10935 10937
10788 10786 10785 10783 10781 10779 10778 10776 10774 10772 10770 10769 10769 10768 10766 10765 10764 10763 10762 10762 10761 10761 10761 10762 10763 10764 10765 10765 10766 10769 10772 10774 10776 10778 10779 10781 10783 10787 10790 10791 10792 10795 10798 10802 10805 10807 10808 10809 10811 10812 10814 10817 10821 10825 10827 10829 10831 10835 10838 10840 10845 10849 10852 10854 10858 10862 10867 10872 10878 10883 10888 10891 10893 10895 10899 10903 10907 10910 10913 10916 10917 10917 10918 10920 10923 10928 10932 10935
10785 10784 10782 10781 10779 10777 10775 10774 10772 10770 10768 10767 10767 10766 10765 10763 10762 10761 10760 10759 10759 10759 10758 10758 10759 10759 10760 10760 10761 10763 10767 10769 10770 10772 10774 10775 10779 10782 10785 10786 10787 10790 10795 10800 10803 10803 10802 10804 10808 10810 10812 10815 10818 10821 10822 10823 10827 10830 10832 10836 10840 10844 10848 10852 10855 10859 10863 10867 10873 10879 10885 10889 10892 10893 10895 10898 10902 10906 10909 10912 10913 10914 10916 10918 10920 10923 10927 10931
10783 10781 10780 10779 10777 10775 10773 10772 10770 10768 10766 10765 10765 10764 10763 10761 10759 10759 10758 10757 10757 10756 10755 10755 10756 10756 10758 10759 10759 10760 10762 10764 10765 10766 10769 10773 10777 10781 10783 10784 10786 10788 10792 10796 10800 10800 10799 10802 10805 10807 10809 10812 10814 10815 10817 10820 10823 10825 10826 10830 10836 10840 10843 10847 10850 10853 10857 10863 10870 10876 10882 10888 10891 10891 10892 10895 10898 10901 10904 10908 10910 10911 10913 10915 10917 10920 10923 10927